Powrót do katalogu

KITSAT B

AktywnyKrótkofalarstwoSSO
NORAD 22828·PAYLOAD·🇰🇷 South Korea

Wystrzelony Sep 26, 1993 z Guiana Space Centre

Loading…

Następne Przeloty (najbliższe 24 godziny)

TLE

ŚwieżeSource: Space-Track

Epoka: Sep 14, 2026, 11:21 UTC

1 22828U 93061F   26257.47358605  .00000078  00000-0  45810-4 0  9998
2 22828  98.6772 324.8562 0010555 139.5693 220.6276 14.31819452688583

Śledź KITSAT B w czasie rzeczywistym z AllMySat

Download on the App Store